Boone, IA

11:53 AM CDT on August 24, 2016 (GMT -0500)
Boone Municipal

Weather History for KBNW - May, 2013

Change the Weather History Date:

Wednesday, May 1, 2013

  Actual Average Record
Temperature  
Mean Temperature 44 °F -  
Max Temperature 54 °F 66 °F 89 °F (1965)
Min Temperature 35 °F 41 °F 29 °F (1966)
Degree Days  
Heating Degree Days 20    
Moisture  
Dew Point 38 °F    
Average Humidity 79    
Maximum Humidity 95    
Minimum Humidity 65    
Precipitation  
Precipitation 0.06 in - - ()
Sea Level Pressure  
Sea Level Pressure 30.18 in    
Wind  
Wind Speed 20 mph (North)    
Max Wind Speed 30 mph    
Max Gust Speed 38 mph    
Visibility 10 miles    
Events Rain    
Averages and records for this station are not official NWS values.
T = Trace of Precipitation, MM = Missing Value Source: NWS Daily Summary

Daily Weather History Graph

Daily Weather History Graph

Search for Another Location

Airport or City:

Trip Planner

Search our weather history database for the weather conditions in past years. The results will help you decide how hot, cold, wet, or windy it might be!

Date:

Astronomy

May. 01, 2013 Rise Set
Actual Time 6:10 AM CDT 8:14 PM CDT
Civil Twilight 5:40 AM CDT 8:45 PM CDT
Nautical Twilight 5:03 AM CDT 9:22 PM CDT
Astronomical Twilight 4:22 AM CDT 10:03 PM CDT
Moon 1:24 AM CDT (5/1) 11:50 AM CDT (5/1)
Length of Visible Light 15h 04m
Length of Day
14h 03m
Waning Gibbous, 59% of the Moon is Illuminated
May 1
Waning Gibbous
May 2
Last Quarter
May 9
New
May 17
First Quarter
May 24
Full

Hourly Weather History & Observations

Time (CDT) Temp. Windchill Dew Point Humidity Pressure Visibility Wind Dir Wind Speed Gust Speed Precip Events Conditions
12:15 AM 54.5 °F - 46.6 °F 75% 29.92 in 10.0 mi NNE 13.8 mph - N/A   Overcast
12:35 AM 54.1 °F - 46.4 °F 75% 29.92 in 10.0 mi NNE 15.0 mph - N/A   Overcast
12:55 AM 54.0 °F - 45.7 °F 74% 29.93 in 10.0 mi NNE 13.8 mph - N/A   Overcast
1:15 AM 54.1 °F - 44.6 °F 70% 29.94 in 10.0 mi NNE 15.0 mph - N/A   Overcast
1:35 AM 54.1 °F - 44.2 °F 69% 29.96 in 10.0 mi NNE 12.7 mph - N/A   Overcast
1:55 AM 53.6 °F - 44.6 °F 72% 29.97 in 10.0 mi North 12.7 mph - N/A   Overcast
2:15 AM 53.6 °F - 44.6 °F 72% 29.98 in 10.0 mi North 17.3 mph - N/A   Overcast
2:35 AM 52.9 °F - 44.8 °F 74% 29.99 in 10.0 mi NW 8.1 mph - N/A   Mostly Cloudy
2:55 AM 52.5 °F - 43.9 °F 72% 29.99 in 10.0 mi North 18.4 mph 33.4 mph N/A   Overcast
3:15 AM 52.5 °F - 41.0 °F 65% 30.00 in 10.0 mi North 18.4 mph 27.6 mph N/A   Overcast
3:35 AM 51.4 °F - 41.9 °F 70% 30.02 in 10.0 mi North 15.0 mph 28.8 mph N/A   Overcast
3:55 AM 50.9 °F - 43.0 °F 74% 30.02 in 10.0 mi North 19.6 mph - N/A   Mostly Cloudy
4:15 AM 50.9 °F - 41.0 °F 69% 30.03 in 10.0 mi North 23.0 mph 29.9 mph N/A   Overcast
4:35 AM 50.0 °F - 41.4 °F 72% 30.03 in 10.0 mi North 19.6 mph 25.3 mph N/A   Mostly Cloudy
4:55 AM 49.1 °F - 41.4 °F 75% 30.04 in 10.0 mi North 19.6 mph 27.6 mph N/A   Scattered Clouds
5:15 AM 48.7 °F - 41.9 °F 77% 30.05 in 10.0 mi North 18.4 mph 26.5 mph N/A   Scattered Clouds
5:35 AM 49.1 °F - 41.2 °F 74% 30.07 in 10.0 mi North 21.9 mph 26.5 mph N/A   Mostly Cloudy
5:55 AM 48.6 °F - 41.0 °F 75% 30.07 in 10.0 mi North 21.9 mph 28.8 mph N/A   Overcast
6:15 AM 48.4 °F - 41.0 °F 76% 30.09 in 10.0 mi North 20.7 mph 27.6 mph N/A   Overcast
6:35 AM 48.2 °F - 40.1 °F 74% 30.11 in 10.0 mi North 21.9 mph 28.8 mph N/A   Overcast
6:55 AM 47.8 °F - 40.1 °F 75% 30.11 in 10.0 mi NNE 23.0 mph 29.9 mph N/A   Overcast
7:15 AM 48.0 °F - 40.6 °F 76% 30.12 in 10.0 mi North 21.9 mph 26.5 mph N/A   Overcast
7:35 AM 48.2 °F - 41.0 °F 76% 30.13 in 10.0 mi North 18.4 mph 25.3 mph N/A   Mostly Cloudy
8:15 AM 48.2 °F - 40.6 °F 75% 30.14 in 10.0 mi North 20.7 mph 28.8 mph N/A   Scattered Clouds
8:35 AM 48.7 °F - 40.3 °F 73% 30.15 in 10.0 mi North 24.2 mph 29.9 mph N/A   Clear
8:55 AM 50.2 °F - 41.0 °F 71% 30.15 in 10.0 mi North 26.5 mph 31.1 mph N/A   Scattered Clouds
9:15 AM 48.4 °F - 40.3 °F 74% 30.16 in 10.0 mi North 25.3 mph 32.2 mph N/A   Overcast
9:35 AM 48.4 °F - 40.1 °F 73% 30.16 in 10.0 mi North 25.3 mph 33.4 mph N/A   Overcast
9:55 AM 46.6 °F - 39.7 °F 77% 30.17 in 10.0 mi North 26.5 mph 34.5 mph N/A   Overcast
10:15 AM 46.6 °F - 38.5 °F 73% 30.17 in 10.0 mi North 25.3 mph 35.7 mph N/A   Overcast
10:35 AM 46.2 °F 37.9 °F 38.7 °F 75% 30.19 in 10.0 mi NNW 24.2 mph 32.2 mph N/A   Overcast
11:15 AM 44.8 °F 35.7 °F 37.9 °F 77% 30.19 in 10.0 mi North 25.3 mph 35.7 mph N/A   Overcast
11:35 AM 44.8 °F 36.2 °F 37.6 °F 76% 30.21 in 10.0 mi North 23.0 mph 32.2 mph N/A   Overcast
11:55 AM 45.5 °F 37.1 °F 37.6 °F 74% 30.22 in 10.0 mi North 23.0 mph 32.2 mph N/A   Overcast
12:15 PM 45.9 °F 37.4 °F 37.6 °F 73% 30.20 in 10.0 mi North 24.2 mph 33.4 mph N/A   Overcast
12:35 PM 45.5 °F 37.3 °F 37.6 °F 74% 30.22 in 10.0 mi North 21.9 mph 31.1 mph N/A   Overcast
12:55 PM 46.6 °F - 37.9 °F 72% 30.21 in 10.0 mi North 20.7 mph 32.2 mph N/A   Overcast
1:15 PM 45.9 °F 37.0 °F 37.9 °F 74% 30.21 in 10.0 mi North 26.5 mph 32.2 mph N/A   Overcast
1:35 PM 46.4 °F 38.1 °F 38.3 °F 73% 30.20 in 10.0 mi NNE 24.2 mph 34.5 mph N/A   Overcast
1:55 PM 46.4 °F 38.7 °F 38.5 °F 74% 30.22 in 10.0 mi North 20.7 mph 27.6 mph N/A   Overcast
2:15 PM 45.9 °F 37.8 °F 38.5 °F 75% 30.22 in 10.0 mi North 21.9 mph 29.9 mph N/A   Overcast
2:35 PM 45.5 °F 36.7 °F 38.5 °F 76% 30.23 in 10.0 mi North 25.3 mph 29.9 mph N/A   Overcast
2:55 PM 44.6 °F 36.6 °F 38.1 °F 78% 30.25 in 10.0 mi North 19.6 mph 27.6 mph N/A   Overcast
3:15 PM 42.6 °F 32.2 °F 36.9 °F 80% 30.25 in 10.0 mi North 28.8 mph 33.4 mph N/A   Overcast
3:35 PM 39.4 °F 28.5 °F 35.2 °F 85% 30.26 in 10.0 mi NNW 25.3 mph 33.4 mph N/A   Overcast
3:55 PM 39.4 °F 28.5 °F 34.9 °F 84% 30.28 in 10.0 mi North 25.3 mph 32.2 mph N/A   Overcast
4:15 PM 39.2 °F 29.3 °F 34.2 °F 82% 30.28 in 10.0 mi North 20.7 mph 33.4 mph N/A   Overcast
4:35 PM 38.7 °F 27.1 °F 33.8 °F 83% 30.28 in 10.0 mi North 27.6 mph 33.4 mph N/A   Overcast
4:55 PM 38.3 °F 27.3 °F 33.1 °F 81% 30.28 in 10.0 mi North 24.2 mph 33.4 mph N/A   Overcast
5:15 PM 37.9 °F 27.3 °F 33.1 °F 83% 30.28 in 10.0 mi North 21.9 mph 31.1 mph N/A   Overcast
5:35 PM 37.4 °F 26.1 °F 32.9 °F 84% 30.28 in 10.0 mi North 24.2 mph 32.2 mph N/A   Overcast
5:55 PM 37.6 °F 25.2 °F 32.9 °F 83% 30.28 in 10.0 mi North 29.9 mph 36.8 mph N/A   Overcast
6:15 PM 37.9 °F 25.7 °F 33.4 °F 84% 30.28 in 10.0 mi North 29.9 mph 35.7 mph N/A   Overcast
6:35 PM 37.8 °F 26.8 °F 33.8 °F 86% 30.29 in 10.0 mi North 23.0 mph 38.0 mph N/A   Overcast
6:55 PM 36.7 °F 24.4 °F 33.3 °F 87% 30.29 in 10.0 mi North 27.6 mph 35.7 mph N/A   Overcast
7:15 PM 36.0 °F 24.2 °F 32.4 °F 87% 30.29 in 10.0 mi North 24.2 mph 33.4 mph N/A   Overcast
7:35 PM 36.0 °F 24.4 °F 32.2 °F 86% 30.29 in 10.0 mi North 23.0 mph 31.1 mph N/A   Overcast
7:55 PM 36.0 °F 23.5 °F 32.2 °F 86% 30.29 in 10.0 mi North 27.6 mph 35.7 mph N/A   Overcast
8:15 PM 36.0 °F 23.7 °F 32.9 °F 89% 30.29 in 10.0 mi North 26.5 mph 36.8 mph N/A   Light Drizzle
8:35 PM 35.8 °F 24.8 °F 33.3 °F 91% 30.32 in 10.0 mi North 20.7 mph 29.9 mph N/A   Light Drizzle
9:15 PM 35.6 °F 23.4 °F 33.8 °F 93% 30.32 in 10.0 mi North 25.3 mph 31.1 mph 0.02 in Rain Light Rain
9:35 PM 35.6 °F 24.5 °F 33.8 °F 93% 30.34 in 10.0 mi North 20.7 mph 31.1 mph 0.02 in   Light Drizzle
9:55 PM 36.0 °F 23.7 °F 33.8 °F 92% 30.34 in 10.0 mi North 26.5 mph 35.7 mph 0.02 in   Overcast
10:15 PM 36.0 °F 23.7 °F 33.8 °F 92% 30.35 in 10.0 mi North 26.5 mph 33.4 mph N/A   Overcast
10:35 PM 36.0 °F 24.2 °F 33.8 °F 92% 30.35 in 7.0 mi North 24.2 mph 31.1 mph 0.01 in Rain Rain
10:55 PM 36.0 °F 24.7 °F 34.5 °F 94% 30.35 in 10.0 mi North 21.9 mph 28.8 mph 0.02 in Rain Light Rain
11:15 PM 36.0 °F 24.2 °F 34.7 °F 95% 30.33 in 10.0 mi North 24.2 mph 33.4 mph 0.01 in Rain Light Rain
11:35 PM 36.0 °F 25.0 °F 34.5 °F 94% 30.31 in 10.0 mi North 20.7 mph 29.9 mph 0.01 in Rain Light Rain
11:55 PM 35.2 °F 22.7 °F 33.8 °F 94% 30.33 in 10.0 mi North 26.5 mph 34.5 mph 0.02 in   Drizzle